Location: Newark
(40.9833°N, 0.0333°W)
Time: 20:06:09
(UTC+00:00)

Vanguard 2 Rocket - Pass Details

Date: 02 November 2020
Orbit: 554 x 3326 km, 32.9° (Epoch: 25 November)

Event Time Altitude Azimuth Distance (km) Brightness Sun altitude
Rises 20:08:14 0° 259° (W) 2,734 10.2 -36.9°
Enters shadow 20:10:19 - 246° (WSW) 2,014 9.2 -37.3°
Reaches altitude 10° 20:10:38 10° 243° (WSW) 1,916 - -37.3°
Maximum altitude 20:13:57 22° 190° (S) 1,460 - -38.0°
Drops below altitude 10° 20:18:11 10° 139° (SE) 2,498 - -38.7°
Sets 20:21:52 0° 126° (SE) 3,846 - -39.4°
